Flag for Sweden Weather past 2 weeks in Stockholm, Sweden

Now
77 °F

Passing clouds.


Feels Like: 79 °F
Forecast: 63 / 75 °F
Wind: 6 mph from Southeast

Location: Stockholm Bromma Airport

Current Time: Jul 30, 2014 at 9:46:53 AM

Latest Report: Jul 30, 2014 at 9:20 AM


Visibility: N/A

Pressure: 29.74 "Hg

Humidity: 74%

Dew point: 68 °F

Location of StockholmLocation

Historic Weather in Stockholm — Graph

°F

Stockholm temperature yesterday

Maximum temperature yesterday: 84 °F (at 2:20 PM)
Minimum temperature yesterday: 64 °F (at 3:20 AM)
Average temperature yesterday: 76 °F

Past Weeks' High & Low Weather Summary

 TemperatureHumidityPressure
High88 °F (Jul 24, 1:50 PM)100% (Jul 18, 2:20 AM)30.30 "Hg (Jul 18, 2:20 AM)
Low54 °F (Jul 18, 4:20 AM)23% (Jul 23, 6:50 PM)29.74 "Hg (Jul 30, 4:20 AM)
Average71 °F67%30.06 "Hg
* Reported Jul 15 8:20 AM — Jul 30 8:50 AM, Stockholm, Weather by CustomWeather, © 2014

Note: Actual official high and low records may vary slightly from our data, if they occured in-between our weather recording intervals... More about our weather records

Advertising

Stockholm weather history for previous 24 hours

 ConditionsComfort  
Time TempWeatherWind HumidityBarometerVisibility
8:50 AM
Jul 30
77 °FPassing clouds.8 mph69%29.74 "HgN/A
8:20 AM75 °FPassing clouds.8 mph74%29.74 "HgN/A
7:50 AM75 °FPassing clouds.8 mph78%29.74 "HgN/A
7:20 AM73 °FFog.7 mph83%29.74 "Hg4 mi
6:50 AM72 °FFog.6 mph94%29.74 "Hg4 mi
6:20 AM70 °FFog.5 mph94%29.74 "Hg4 mi
5:50 AM70 °FFog.6 mph94%29.74 "Hg4 mi
5:20 AM70 °FFog.5 mph94%29.74 "Hg4 mi
4:50 AM68 °FFog.5 mph94%29.74 "Hg4 mi
4:20 AM66 °FFog.2 mph94%29.74 "Hg2 mi
3:50 AM66 °FFog.2 mph94%29.77 "Hg4 mi
3:20 AM66 °FPassing clouds.2 mph94%29.77 "Hg4 mi
2:50 AM66 °FMild.2 mph94%29.77 "HgN/A
2:20 AM66 °FMild.3 mph100%29.77 "HgN/A
1:50 AM68 °FMild.3 mph94%29.77 "HgN/A
1:20 AM66 °FMild.2 mph94%29.77 "HgN/A
12:50 AM68 °FPassing clouds.3 mph88%29.77 "HgN/A
12:20 AM70 °FPassing clouds.3 mph83%29.77 "HgN/A
11:50 PM
Jul 29
72 °FPassing clouds.5 mph78%29.77 "HgN/A
11:20 PM72 °FPassing clouds.6 mph78%29.77 "HgN/A
10:50 PM73 °FPassing clouds.3 mph74%29.77 "HgN/A
10:20 PM73 °FScattered clouds.5 mph74%29.77 "HgN/A
9:50 PM75 °FSunny.6 mph69%29.77 "Hg10 mi
9:20 PM75 °FPassing clouds.5 mph69%29.77 "HgN/A
8:50 PM77 °FSunny.6 mph65%29.77 "Hg10 mi
8:20 PM77 °FSunny.10 mph61%29.77 "Hg10 mi
7:50 PM81 °FSunny.7 mph51%29.77 "Hg10 mi
7:20 PM81 °FSunny.6 mph51%29.77 "Hg10 mi
6:50 PM81 °FPassing clouds.8 mph51%29.77 "HgN/A
6:20 PM84 °FSunny.2 mph40%29.77 "Hg10 mi
5:50 PM84 °FPassing clouds.5 mph43%29.77 "HgN/A
5:20 PM84 °FSunny.6 mph40%29.77 "Hg10 mi
4:50 PM84 °FPassing clouds.6 mph43%29.77 "HgN/A
4:20 PM84 °FPassing clouds.6 mph43%29.80 "HgN/A
3:50 PM84 °FPassing clouds.7 mph43%29.80 "HgN/A
3:20 PM84 °FPassing clouds.7 mph43%29.80 "HgN/A
2:50 PM84 °FSunny.7 mph43%29.80 "Hg10 mi
2:20 PM84 °FPassing clouds.8 mph43%29.80 "HgN/A
1:50 PM82 °FPassing clouds.8 mph45%29.83 "HgN/A
1:20 PM82 °FPassing clouds.8 mph45%29.83 "HgN/A
12:50 PM82 °FPassing clouds.8 mph48%29.83 "HgN/A
12:20 PM82 °FSunny.7 mph45%29.83 "Hg10 mi
11:50 AM81 °FPassing clouds.7 mph48%29.83 "HgN/A
11:20 AM81 °FPassing clouds.6 mph51%29.83 "HgN/A
10:50 AM79 °FPassing clouds.6 mph58%29.86 "HgN/A
10:20 AM79 °FPassing clouds.6 mph58%29.86 "HgN/A
9:50 AM79 °FPassing clouds.6 mph58%29.86 "HgN/A
9:20 AM77 °FPassing clouds.6 mph65%29.86 "HgN/A
Weather by CustomWeather, © 2014

See weather overviewHow to use our weather pages